STARLINK-34682

Last updated on Tue Aug 19 2025 00:02:06 GMT+0000 (Coordinated Universal Time)

1 64854U 25152N 25230.59864294 .00027803 00000+0 71206-3 0 9999 2 64854 97.6033 84.1590 0001620 96.7097 263.4333 15.39362107 4781
UTC large
Height (km)
Speed (km/s)
/
Latitude / Longitude
Inclination (degrees)
Orbital Period (minutes)
Azimuth
Elevation
Range (km)
Doppler Factor

Next 0 passes for location: London (51.5072 / 0.1276)

Sorry there are no passes over London.